Location: Chandolas
(44.4033°N, 4.2533°E)
Time: 12:37:39
(UTC+00:00)

Cosmos 1151 Rocket - Pass Details

Date: 15 November 2019
Orbit: 593 x 616 km, 82.5° (Epoch: 10 December)

Event Time Altitude Azimuth Distance (km) Brightness Sun altitude
Rises 05:34:53 0° 348° (NNW) 2,895 6.2 -11.5°
Reaches altitude 10° 05:37:08 10° 346° (NNW) 1,983 5.4 -11.1°
Maximum altitude 05:41:29 65° 265° (W) 676 3.0 -10.4°
Drops below altitude 10° 05:45:46 10° 183° (S) 1,956 5.8 -9.6°
Sets 05:47:59 0° 181° (S) 2,852 6.7 -9.2°
